GFSNW_500_spd_144.txt.gz
Wind_Speed
29 32 34 37 37 35 39 41 39 38 36 31 28 24 23 23 21 19 17 17 16 9 5 8 7 8 9 9 13 15 16 18 17 18 20 23 23 22 20 18 19 18 18 19
22 26 30 33 35 36 36 39 41 39 38 35 32 28 23 22 22 20 18 17 16 14 12 8 4 4 5 7 9 12 15 16 18 19 21 25 26 22 20 19 17 18 17 17
20 21 23 26 31 33 35 36 38 39 38 37 34 32 30 24 22 21 20 18 18 17 14 11 8 3 3 5 7 10 13 15 18 20 24 25 29 32 26 17 18 21 20 18
16 17 19 22 25 28 30 33 35 37 37 37 36 35 34 31 26 23 20 19 17 17 16 15 13 9 6 5 4 6 9 12 15 18 20 21 21 20 24 27 23 22 27 16
16 14 15 19 23 24 27 27 30 33 35 36 35 36 36 34 31 28 25 20 17 17 18 16 14 13 11 10 4 2 6 8 11 14 17 20 19 20 20 20 19 18 17 23
17 15 13 14 18 20 23 26 26 27 28 31 34 34 36 35 34 31 28 25 22 18 17 16 17 17 14 11 8 0 3 7 8 11 13 15 16 17 20 21 21 18 17 17
20 16 15 12 15 18 22 25 24 24 24 27 28 30 33 33 33 33 33 26 23 22 21 17 15 16 17 16 14 6 2 0 5 7 9 9 11 9 12 15 18 18 17 18
19 18 16 13 13 15 19 23 24 23 23 25 24 24 27 29 31 31 33 31 26 22 24 22 17 14 14 16 16 12 3 2 3 5 9 9 9 11 10 12 15 19 18 20
19 19 20 18 16 16 18 22 22 22 20 21 19 21 22 25 27 28 30 30 29 24 22 22 22 17 12 12 14 14 11 3 6 7 8 8 10 12 13 17 16 18 21 23
22 20 20 20 21 22 21 21 22 21 18 17 19 19 20 22 22 22 24 26 27 28 25 21 21 22 15 12 10 11 11 12 6 10 11 12 14 15 18 19 21 26 25 25
24 21 21 20 20 21 21 21 20 21 18 15 17 19 18 19 19 19 18 20 21 24 26 27 25 22 21 18 14 11 10 10 9 10 14 15 17 18 19 22 25 25 24 26
26 23 22 22 21 19 20 21 21 24 21 20 19 21 20 18 18 16 15 15 17 18 20 23 26 27 26 22 20 17 11 11 13 13 11 13 16 18 17 16 18 18 21 21
26 24 23 23 23 21 20 20 22 22 22 23 20 20 21 20 17 16 13 13 15 15 17 20 23 25 27 28 26 19 17 16 15 18 18 19 19 19 19 19 17 15 15 15
27 24 24 26 25 26 27 25 25 26 24 25 22 17 21 23 22 19 16 15 16 16 16 19 20 23 24 26 27 27 22 20 17 17 20 22 22 23 22 21 21 19 17 15
27 26 25 27 28 29 29 28 26 29 30 28 26 21 23 23 25 25 23 21 19 19 17 18 21 23 22 23 25 23 25 26 27 21 23 21 21 22 21 20 22 22 22 20
31 26 24 28 29 27 28 27 28 31 35 35 29 22 25 25 27 28 28 28 27 25 22 19 19 22 15 16 22 20 20 21 24 24 23 26 24 21 19 21 20 19 21 25
33 32 27 30 31 31 29 29 29 33 35 41 39 27 27 25 25 27 27 30 31 32 28 23 24 24 21 23 21 15 17 19 22 21 24 25 21 20 21 20 20 22 22 21
42 39 31 35 39 32 29 28 29 35 37 41 40 34 29 27 25 24 27 29 30 32 33 29 29 32 24 21 27 18 17 20 24 24 24 28 26 22 22 22 22 19 19 22
50 50 46 43 44 36 36 41 34 35 39 39 36 35 33 31 30 27 27 28 29 32 33 37 39 37 24 23 31 30 25 24 25 26 27 28 28 24 26 24 23 22 23 21
60 58 58 55 49 44 41 43 39 42 43 42 37 37 40 38 35 33 33 34 33 34 33 35 35 38 23 28 32 35 33 30 28 27 29 31 30 29 30 29 27 29 29 30
69 65 62 59 56 52 48 48 50 49 52 48 40 43 44 42 39 36 39 39 40 40 38 37 36 31 29 35 35 37 38 35 33 34 31 34 35 33 33 34 33 35 37 38
73 71 68 60 60 61 59 57 60 61 54 50 47 48 51 52 49 49 46 46 47 45 42 44 40 36 40 36 37 40 40 41 39 39 37 36 37 39 39 41 43 44 44 43
78 77 77 77 76 72 68 65 62 60 55 54 58 59 58 57 58 56 54 54 50 48 54 55 37 37 39 38 39 41 43 43 41 41 42 43 42 42 44 44 47 48 49 49
86 88 85 83 85 83 75 65 63 64 65 65 66 67 65 63 63 64 62 61 57 56 55 51 45 45 44 41 42 42 45 50 50 43 45 46 49 48 48 46 48 52 51 52
87 86 90 90 85 84 80 75 72 71 72 72 72 74 74 73 72 67 67 69 70 63 54 52 51 46 46 42 41 43 45 46 46 46 48 48 51 51 55 53 55 55 55 53
77 80 88 97 93 87 84 81 77 77 77 74 75 76 77 78 77 76 74 76 73 64 53 56 56 50 48 44 43 42 42 46 48 53 51 52 53 54 54 56 60 60 58 59
77 81 81 91 97 93 87 85 82 83 87 87 84 81 73 67 69 74 73 74 64 59 62 62 58 55 51 47 45 40 39 42 45 49 51 49 51 54 58 60 64 63 63 64

GFSNW_500_spd_147.txt.gz
Wind_Speed
21 23 26 29 31 34 36 37 36 37 35 32 28 25 23 22 20 18 16 12 11 7 1 3 3 3 3 6 9 12 12 13 12 13 13 14 14 12 10 11 10 11 9 9
18 18 20 22 25 28 30 33 34 35 35 33 31 29 25 23 21 18 17 15 12 9 7 1 2 5 5 6 8 10 11 13 13 14 19 22 17 13 14 14 15 14 13 12
18 15 16 17 20 22 25 27 29 30 32 33 31 31 29 27 24 21 16 15 14 12 9 7 3 5 9 7 5 7 10 12 15 17 17 17 19 19 17 15 17 17 15 17
20 15 13 15 16 18 21 23 24 26 28 29 30 29 31 30 27 24 22 16 14 13 12 10 8 7 7 7 5 4 7 10 11 14 14 15 16 15 14 13 12 12 14 11
24 18 14 12 13 16 17 19 20 21 23 24 25 26 28 30 30 28 24 22 18 13 11 12 11 9 9 3 4 3 4 7 10 11 12 12 11 13 15 16 13 11 13 15
23 22 18 14 12 16 18 20 20 19 20 21 19 21 23 26 28 30 28 24 23 18 15 12 12 12 12 7 4 3 1 4 6 7 8 9 9 10 12 14 16 16 16 16
23 22 20 18 16 14 18 20 20 20 18 18 16 18 20 20 22 24 27 26 25 24 20 18 12 11 13 12 2 5 5 4 4 5 8 8 8 10 11 13 15 15 18 22
24 23 22 20 21 19 18 21 20 20 17 15 14 15 15 17 17 19 22 23 24 23 22 23 21 12 10 10 10 2 8 8 9 8 8 9 10 12 13 16 17 19 23 23
29 25 24 22 21 22 21 21 21 19 18 16 14 15 15 14 15 14 16 19 20 22 22 24 24 22 16 10 8 10 9 8 11 14 13 14 14 15 16 20 19 22 26 23
31 28 26 25 23 21 22 22 22 20 18 19 17 16 17 17 14 14 13 14 15 17 20 22 22 22 21 18 11 9 9 10 10 12 15 18 19 20 21 21 20 24 27 28
35 32 30 27 26 24 23 23 21 19 17 17 18 21 20 19 16 12 12 12 14 14 16 18 20 21 21 21 19 17 13 13 14 14 16 16 18 18 21 20 18 19 20 22
35 36 32 28 26 27 24 24 23 21 20 19 17 21 23 23 19 17 14 15 15 16 15 17 18 20 20 17 20 19 17 18 15 15 17 19 21 23 22 21 22 20 19 17
31 36 33 31 30 28 29 26 24 22 24 25 22 21 23 21 23 22 19 17 17 20 21 20 21 21 20 20 19 16 18 18 17 16 14 17 16 16 18 20 22 21 19 18
33 35 32 31 32 32 31 31 29 28 26 26 28 20 20 26 26 27 26 25 22 22 23 24 25 24 20 19 21 19 14 18 16 17 18 15 16 17 18 16 17 18 19 18
37 37 33 32 32 32 32 30 27 29 32 30 30 26 25 27 29 29 30 30 31 30 28 26 26 27 27 21 17 24 15 16 17 16 20 19 14 14 17 16 14 13 15 17
45 40 39 39 36 31 33 29 25 28 32 34 33 30 26 31 31 30 31 30 31 33 33 31 28 29 33 26 16 25 26 20 20 19 22 25 25 25 19 19 16 18 17 15
53 50 45 47 45 41 37 30 26 30 35 37 39 39 26 32 33 33 32 32 32 33 32 30 30 33 37 32 20 37 32 27 26 25 24 27 27 28 28 25 24 21 18 16
60 57 54 50 52 52 40 36 35 33 38 42 44 41 26 30 32 33 34 34 33 33 33 28 31 36 37 32 16 37 44 39 32 31 30 32 31 30 28 29 32 31 30 29
61 62 61 58 53 54 47 46 45 44 41 46 46 43 37 31 35 37 37 37 37 36 34 34 36 34 33 33 28 35 41 38 38 42 37 37 38 38 35 33 32 34 36 37
62 65 68 67 62 56 56 54 51 54 55 57 54 50 50 46 42 42 42 43 41 36 34 36 36 35 30 36 32 32 35 39 39 40 43 44 42 42 42 42 39 36 37 37
67 68 69 71 67 64 63 64 65 64 65 65 62 57 55 56 56 55 53 50 48 46 43 44 48 40 35 42 41 44 43 40 40 44 46 47 46 44 44 47 47 47 46 46
73 75 74 74 74 73 70 70 70 69 67 65 64 59 61 62 64 65 63 60 58 54 51 51 53 43 40 48 46 45 43 42 44 46 46 48 48 45 46 49 51 51 52 53
86 84 83 82 80 80 81 77 75 76 70 65 66 66 68 70 68 71 70 72 70 65 62 60 51 45 50 52 49 50 51 49 50 49 49 51 53 53 51 52 53 54 58 59
83 82 78 84 86 84 82 80 79 78 77 75 73 72 73 75 76 76 76 75 74 73 70 61 57 57 57 58 58 59 57 55 50 48 49 50 53 56 54 56 56 59 63 63
78 74 75 87 89 90 90 88 87 84 81 80 79 77 76 76 79 80 80 80 82 79 68 59 62 61 60 57 60 57 55 57 54 53 52 51 52 55 53 55 57 57 60 61
71 74 81 89 89 90 92 93 91 86 84 79 80 82 82 82 81 81 80 82 82 74 62 53 52 53 53 51 53 53 53 54 57 57 55 54 50 53 53 55 58 53 53 53
74 75 73 74 77 77 76 77 81 81 78 79 78 79 81 83 87 89 89 84 76 72 68 64 65 67 67 64 61 53 52 52 51 51 55 54 52 51 54 54 57 53 50 53

GFSNW_500_spd_150.txt.gz
Wind_Speed
22 21 21 23 25 27 30 31 29 31 32 31 34 30 25 21 18 17 15 13 7 5 8 8 8 9 11 13 14 14 14 16 15 10 6 7 6 5 4 3 2 2 2 3
23 19 19 18 20 24 26 28 29 28 29 29 30 32 30 25 21 15 15 15 12 9 6 7 11 11 10 12 11 11 12 13 12 13 13 8 8 9 10 8 7 9 10 8
25 21 17 17 17 20 24 24 25 26 25 26 26 27 31 30 25 22 17 13 13 12 10 8 8 9 8 8 7 7 8 9 10 12 11 13 10 8 6 8 8 11 13 12
24 24 20 16 15 17 20 22 23 24 24 21 22 23 26 28 29 26 24 19 15 11 12 12 12 10 6 6 4 5 6 7 9 10 9 9 11 12 12 11 11 12 13 15
25 23 21 20 15 15 18 19 21 22 22 20 19 20 21 24 26 27 26 24 22 19 10 11 13 14 3 2 3 3 3 4 5 6 7 7 9 11 12 13 13 14 17 21
28 26 24 21 20 18 18 20 18 21 19 18 16 17 18 19 20 23 25 25 24 23 21 13 11 13 13 3 6 6 6 5 6 6 9 9 9 11 11 11 14 14 16 20
31 28 25 26 23 22 20 19 21 18 19 16 15 14 15 18 17 17 19 21 22 22 23 23 17 11 11 11 6 11 11 12 11 11 11 11 13 14 14 14 15 15 17 21
35 32 28 25 27 25 24 22 20 20 18 16 16 16 14 15 18 17 16 16 18 19 19 20 20 19 16 11 8 9 10 15 16 15 15 14 16 18 19 19 22 23 23 24
43 36 32 29 27 28 27 25 23 20 20 19 18 17 16 17 18 18 18 17 14 15 16 17 17 19 17 17 16 13 13 13 14 14 16 18 21 22 22 24 21 24 25 26
44 44 37 32 30 29 28 27 26 24 21 19 18 19 17 17 16 16 17 19 17 16 16 17 16 17 16 16 16 16 16 15 16 17 17 17 19 20 21 22 22 21 22 22
39 43 38 36 33 31 29 28 29 27 24 21 19 20 20 21 19 18 17 17 20 20 19 19 20 18 19 17 16 16 18 16 18 16 17 16 18 19 22 25 25 25 23 23
38 41 40 37 36 35 33 30 30 29 27 25 23 21 20 23 22 21 19 20 22 22 23 22 21 24 23 22 21 19 18 20 17 16 18 17 20 22 21 24 25 25 25 24
44 41 43 40 37 38 35 33 33 32 30 29 27 26 24 24 25 22 24 24 27 25 26 27 28 25 24 26 23 23 24 23 19 17 21 17 19 17 20 26 25 24 24 23
47 47 45 46 41 38 38 34 34 36 36 32 33 32 28 23 25 29 29 28 28 31 31 28 28 30 33 27 28 23 26 27 25 19 24 25 21 18 21 23 24 24 24 24
49 49 51 50 52 46 40 36 34 35 39 36 33 35 31 29 29 31 30 32 33 33 35 33 30 29 34 32 27 15 28 33 32 20 27 27 29 26 26 24 23 25 25 25
56 52 50 53 55 57 52 43 39 39 39 43 39 36 31 32 32 30 32 33 34 34 38 34 32 32 33 26 20 14 23 39 46 32 32 31 32 31 30 31 29 25 28 29
60 57 54 54 56 57 59 52 46 45 43 44 47 46 34 34 33 34 33 34 33 36 36 37 35 37 36 28 24 27 30 41 46 46 41 37 39 38 36 37 36 36 30 29
63 59 58 59 59 60 57 56 56 52 46 51 54 54 49 39 35 35 35 36 37 36 36 36 37 43 41 29 30 23 28 32 35 40 39 38 40 43 45 45 43 43 42 37
63 64 64 66 62 61 58 56 59 58 55 54 56 59 59 55 49 45 44 45 45 43 40 43 42 39 37 35 33 32 33 31 34 36 35 38 41 45 45 46 49 53 51 48
67 70 71 68 65 65 63 59 59 57 56 59 58 59 58 62 59 56 57 56 56 55 51 52 49 43 41 41 43 40 44 39 37 38 41 44 43 44 45 46 47 48 51 54
78 78 77 73 67 68 69 67 64 64 65 63 62 64 65 60 61 62 64 64 64 63 62 60 57 54 49 52 52 52 51 49 43 42 40 42 43 44 47 51 51 51 52 55
82 83 83 80 80 77 72 66 68 69 69 66 66 70 68 69 70 70 70 67 67 67 65 65 63 51 55 58 59 57 56 54 52 48 43 43 46 46 48 50 53 54 54 54
82 84 84 84 82 81 79 77 76 74 77 75 77 76 75 75 75 77 74 76 76 72 73 73 69 55 58 59 62 65 65 64 59 57 55 53 52 53 50 50 50 54 57 59
77 78 81 81 84 87 84 81 81 81 83 82 81 82 82 81 77 73 76 77 77 79 80 78 69 57 65 62 63 64 62 62 59 56 52 51 50 51 52 54 55 56 57 58
71 69 75 83 83 83 80 80 81 82 83 83 81 80 77 75 75 79 79 79 78 79 79 73 68 70 71 68 69 69 63 59 56 54 50 47 46 46 49 53 56 58 58 58
71 72 73 74 75 72 72 71 70 71 72 72 74 73 71 71 73 75 77 77 82 78 71 71 68 69 70 71 74 74 73 71 69 68 64 60 59 56 51 50 50 53 55 60
74 68 64 63 65 63 62 62 61 60 60 61 64 69 73 72 73 77 76 75 69 68 69 69 67 66 61 67 72 70 72 71 67 64 61 62 59 59 59 57 56 57 56 54

GFSNW_500_spd_153.txt.gz
Wind_Speed
27 24 23 22 24 28 29 29 30 29 29 29 32 31 31 27 19 16 16 15 15 12 11 12 14 15 15 16 14 14 13 13 13 11 8 5 4 5 4 4 3 2 2 2
27 26 23 22 21 22 26 28 28 27 26 27 28 28 30 30 27 21 13 12 13 12 12 11 9 9 10 12 10 9 9 10 12 11 11 9 8 8 10 10 9 9 6 4
29 27 25 23 21 20 20 23 25 26 24 23 24 24 25 27 28 28 24 17 12 12 14 12 8 5 5 6 6 6 7 10 10 9 10 10 8 8 9 9 9 10 10 10
31 28 27 24 21 21 21 19 22 24 24 22 21 22 22 22 24 26 26 26 23 15 14 15 11 3 4 4 4 6 6 8 8 7 7 7 8 9 9 9 8 8 9 10
29 31 30 26 25 21 21 21 19 20 21 20 18 19 20 19 19 20 21 23 25 25 19 13 13 6 5 5 6 7 8 8 9 9 7 8 9 10 10 9 10 12 13 16
29 29 29 31 27 25 22 22 22 20 20 19 17 16 16 19 19 17 17 17 19 21 22 22 16 10 11 8 11 12 11 11 12 14 12 13 11 12 12 12 14 14 16 20
34 33 30 29 30 27 25 23 23 22 20 20 19 17 16 15 17 18 16 15 15 15 17 17 19 20 17 13 11 12 13 15 17 17 17 16 17 18 18 19 21 21 21 23
34 35 36 32 28 30 27 25 24 23 21 21 21 21 18 17 15 16 17 16 14 14 13 14 16 17 16 18 18 18 16 15 17 15 14 16 21 21 24 24 26 26 27 27
32 34 34 36 32 28 31 27 26 25 24 22 22 23 21 19 18 18 15 15 15 14 14 15 14 14 15 17 17 17 18 19 17 18 16 18 18 18 19 21 20 25 27 25
37 35 37 36 36 32 30 30 28 27 28 26 23 23 24 22 19 19 21 18 16 16 16 15 16 17 18 15 17 20 20 18 18 19 16 15 18 20 20 20 21 21 24 25
41 40 39 38 37 38 32 33 31 28 26 31 26 26 25 26 25 23 23 22 22 18 19 19 20 19 20 21 20 21 22 22 19 21 23 17 19 19 19 19 23 24 25 25
46 44 44 42 40 39 37 37 35 32 28 30 32 29 28 27 28 27 27 28 24 24 24 22 22 23 24 25 22 23 23 26 26 25 22 24 18 23 24 23 26 25 26 28
50 48 46 47 46 45 41 38 39 37 33 32 35 34 31 33 33 32 31 32 29 29 28 27 26 26 30 26 25 24 27 30 30 29 19 28 24 23 24 25 24 27 27 25
56 55 51 50 49 50 48 44 41 42 40 34 35 35 30 28 29 28 30 32 35 33 33 35 29 29 33 29 27 23 25 35 37 35 28 33 29 31 29 29 28 29 26 24
62 60 58 53 52 53 53 52 47 43 45 44 39 42 42 41 36 36 35 35 36 37 38 36 34 30 36 34 24 21 28 35 39 40 38 31 28 32 34 36 34 32 30 31
65 63 61 58 59 57 57 56 51 49 48 50 46 44 44 43 45 41 37 38 38 40 40 41 36 36 38 36 26 26 31 31 36 38 41 31 37 35 37 39 36 39 38 38
67 67 66 66 64 64 62 60 53 53 54 52 53 51 46 41 41 45 45 41 38 38 39 39 36 38 43 37 35 31 33 34 37 38 38 37 38 33 33 35 39 42 42 44
67 67 67 68 66 64 63 61 61 57 59 59 55 52 51 48 41 44 46 45 47 47 44 39 41 44 44 41 43 38 37 36 37 40 38 36 39 42 38 35 35 38 41 45
57 58 59 59 58 59 59 60 63 63 62 63 60 57 58 58 55 50 48 49 50 49 46 46 50 48 45 46 50 51 50 46 43 43 45 47 43 43 44 45 43 43 42 41
70 69 64 61 60 60 60 61 60 63 65 65 62 64 65 65 66 62 60 60 58 57 56 55 54 52 46 51 52 53 56 55 55 53 51 53 49 48 46 48 51 47 47 46
73 71 71 66 63 64 64 63 67 70 69 66 65 68 72 72 71 68 67 67 67 66 64 64 60 56 48 53 55 54 56 57 57 62 58 57 55 53 50 47 50 51 50 50
76 75 75 75 73 71 74 74 76 76 73 73 73 75 79 80 82 80 76 74 76 75 71 69 61 59 60 58 60 58 58 59 60 61 60 59 58 56 54 53 54 53 52 52
74 73 76 74 74 76 79 79 82 82 81 80 80 80 82 83 85 86 83 84 85 82 79 76 73 68 63 63 62 65 68 62 62 62 58 56 55 51 49 46 47 48 49 53
73 71 70 73 78 84 79 75 74 77 79 79 78 78 77 80 78 75 81 76 82 84 85 79 68 67 74 72 76 79 71 67 66 65 63 60 59 57 56 54 50 49 48 49
69 69 71 76 76 73 71 69 66 67 68 66 67 71 72 69 69 68 68 73 80 81 74 60 58 64 66 67 64 62 63 59 57 58 50 64 63 61 61 63 63 65 64 61
71 72 70 66 65 64 64 61 60 60 59 60 61 62 64 65 64 65 66 71 77 69 59 61 65 63 52 65 61 60 62 65 62 62 60 65 66 67 65 63 59 61 64 62
76 67 63 62 62 59 57 55 56 58 57 57 57 59 59 61 64 67 69 70 65 64 60 61 65 67 69 71 70 67 70 74 74 75 74 72 72 70 70 67 63 66 61 60

GFSNW_500_spd_156.txt.gz
Wind_Speed
31 29 27 25 24 24 26 27 28 27 26 27 27 28 30 29 25 16 15 15 13 11 8 9 10 13 12 12 12 14 16 16 15 15 13 10 10 10 10 10 8 7 5 5
32 31 29 26 24 23 22 23 24 25 23 23 24 25 25 26 26 28 20 14 13 12 7 5 5 6 7 8 10 13 14 15 14 14 15 14 13 12 10 8 8 8 7 6
27 31 31 29 26 23 22 20 20 21 22 20 20 20 21 21 22 23 24 24 16 13 11 3 4 3 5 6 8 11 13 13 12 11 10 11 11 11 9 7 7 7 7 8
23 24 27 30 29 25 23 21 20 19 19 19 18 17 17 18 18 18 18 20 21 17 12 12 3 5 5 5 8 10 11 12 12 11 12 11 10 10 9 9 8 8 11 13
27 27 25 25 27 29 26 23 20 20 18 18 17 17 17 15 15 15 15 14 14 17 17 13 9 9 10 10 11 11 12 12 12 16 15 14 15 13 11 12 15 13 16 19
27 28 28 27 26 27 27 26 23 21 19 18 19 18 18 17 16 15 13 12 12 12 11 14 15 15 13 11 11 12 11 11 12 16 17 18 18 17 18 20 21 22 22 24
28 29 28 28 27 26 28 28 26 23 21 19 19 20 19 18 18 15 15 13 12 12 12 11 12 13 13 14 14 15 15 15 13 12 15 14 15 16 17 19 23 21 24 26
29 30 31 30 29 27 25 27 28 29 24 21 19 21 22 19 18 19 17 16 16 13 13 12 14 14 15 17 16 15 17 18 16 14 14 14 16 15 14 12 19 19 20 21
33 32 33 32 31 31 28 24 25 28 29 26 22 19 21 24 21 21 20 20 18 18 17 15 14 15 17 17 19 21 19 18 18 19 17 18 18 17 17 12 14 17 19 22
40 41 40 38 36 35 34 30 27 25 29 30 29 25 22 22 23 25 25 25 25 21 20 22 19 18 20 19 19 20 23 24 23 22 21 19 24 19 19 15 15 17 18 20
45 45 44 43 41 40 39 37 33 31 27 34 32 32 31 25 25 26 26 27 29 29 27 25 25 24 23 23 23 28 28 29 26 27 28 28 28 23 23 21 22 21 20 18
49 49 48 47 46 43 42 42 41 38 33 34 35 35 36 33 32 28 29 31 32 33 33 30 28 29 27 26 24 25 32 32 34 32 29 37 38 27 23 25 24 26 26 25
55 54 52 50 49 49 47 46 45 44 41 33 39 40 36 34 29 28 27 27 30 32 35 34 34 33 33 30 30 25 27 36 42 42 29 37 37 38 33 32 29 29 29 29
58 56 56 56 54 53 51 49 48 48 48 45 36 37 41 39 37 36 32 32 35 36 38 40 38 37 38 33 34 28 30 32 37 38 35 37 28 32 34 37 39 37 31 30
61 61 59 58 57 56 55 50 46 48 50 52 50 46 45 44 40 37 38 37 37 38 40 41 41 38 42 40 35 23 28 29 33 34 37 42 35 38 35 34 37 44 43 38
65 62 60 57 59 60 58 56 49 50 53 56 56 52 45 43 44 41 44 43 41 42 42 44 42 39 40 42 34 31 33 36 33 31 36 41 38 40 42 42 38 37 40 42
58 56 55 55 55 57 56 52 42 43 48 52 57 58 57 42 40 41 44 49 48 44 45 45 45 44 49 47 40 45 45 43 42 39 42 35 37 36 40 43 44 44 41 40
59 54 53 53 55 53 46 42 46 45 46 49 51 52 55 56 54 42 44 48 48 50 48 44 46 50 49 46 49 47 47 50 50 53 50 49 46 43 44 45 46 49 51 52
60 58 56 53 52 52 51 53 54 56 56 56 57 55 53 53 57 61 61 58 55 53 50 49 52 50 49 47 51 52 53 54 55 55 55 55 55 56 56 52 48 51 51 53
65 64 63 60 58 62 64 63 63 66 64 64 63 65 66 65 63 63 67 68 68 63 62 61 58 56 48 45 52 55 57 56 56 56 55 57 57 57 55 55 55 55 54 53
77 76 73 71 71 71 69 70 70 72 73 72 70 70 72 72 72 73 74 74 74 71 70 72 70 65 50 55 60 65 64 59 60 63 62 62 60 58 56 54 56 57 57 56
82 79 75 76 75 76 76 76 75 76 78 77 72 72 75 75 77 78 79 78 78 77 76 76 72 65 58 71 73 74 68 60 58 60 61 65 64 62 61 59 58 58 58 58
78 80 76 75 73 75 81 81 84 78 74 72 70 69 72 74 74 74 70 76 80 79 80 79 77 53 70 76 70 63 61 63 63 56 59 62 61 60 60 62 60 59 58 58
73 73 72 74 81 88 84 76 74 72 66 64 64 65 67 70 70 70 70 68 72 77 77 67 48 63 71 69 64 54 52 54 48 55 60 59 62 63 57 55 60 54 59 57
71 72 72 77 74 73 71 68 64 60 59 59 61 64 65 65 66 64 64 66 72 72 69 60 66 58 48 45 60 51 52 58 62 62 58 62 58 48 53 56 50 57 63 72
74 76 71 66 63 61 62 61 60 60 58 59 60 61 63 64 65 67 68 71 71 64 59 54 61 61 61 59 55 61 61 62 67 61 62 66 72 71 69 72 73 76 78 77
81 75 68 64 63 59 61 61 61 60 59 59 60 64 64 65 67 72 71 71 67 66 66 59 64 65 59 64 67 69 70 70 70 71 72 73 73 72 72 70 66 68 67 67

GFSNW_500_spd_159.txt.gz
Wind_Speed
33 33 34 28 24 24 23 22 23 23 23 24 23 22 24 25 23 19 16 6 6 6 7 6 6 8 8 10 13 15 15 16 17 18 18 17 17 15 14 14 14 14 13 11
27 29 32 32 31 24 22 22 20 18 19 18 19 20 19 19 20 21 19 16 10 1 2 3 4 6 7 9 11 12 13 13 13 13 13 13 14 13 13 12 12 12 13 13
24 25 27 28 31 31 26 21 20 19 17 15 14 14 16 17 16 15 16 17 17 13 9 6 6 6 6 8 10 11 14 14 13 12 12 12 13 12 10 9 10 12 13 15
22 25 24 24 25 28 30 28 22 19 17 16 14 12 12 13 15 14 12 12 13 14 15 13 10 10 11 11 13 14 14 16 16 16 15 15 16 15 14 14 16 14 15 16
20 21 23 24 23 25 25 28 28 24 20 17 15 14 13 12 12 14 13 12 10 10 11 11 13 14 14 12 11 11 11 11 15 19 18 18 18 19 19 19 20 19 21 20
20 22 22 22 23 23 24 24 26 27 24 21 18 15 14 14 13 12 13 14 13 13 11 11 11 11 12 13 13 15 14 13 12 14 14 14 14 14 14 17 18 17 16 16
25 25 24 23 23 23 23 24 23 24 28 25 22 21 20 17 15 15 14 14 16 15 16 16 15 16 16 15 16 18 17 17 16 14 18 16 13 11 13 15 12 15 15 16
29 29 29 28 28 26 24 23 24 24 23 26 27 23 21 22 21 19 17 17 16 17 18 17 18 20 19 20 20 22 23 22 19 18 17 19 21 17 17 15 16 15 15 16
34 35 35 34 34 34 31 28 25 25 27 26 25 29 27 23 23 25 23 21 22 20 19 21 22 22 23 22 23 24 24 27 27 26 24 26 27 24 22 22 18 18 20 20
37 39 39 40 40 40 39 37 34 30 29 31 30 28 30 30 27 26 26 28 25 26 25 24 24 24 25 26 27 30 31 29 28 32 33 23 32 33 29 29 27 25 25 23
42 43 44 45 45 45 45 45 41 36 32 35 35 34 32 32 32 33 28 28 27 26 28 28 29 27 28 28 27 31 33 38 37 36 32 34 33 34 32 29 27 29 30 29
47 47 48 48 50 51 50 47 46 43 39 36 38 36 36 36 34 30 26 29 30 31 31 29 29 29 29 29 31 32 32 35 43 43 35 41 38 37 34 36 29 29 34 36
51 52 52 52 54 54 51 48 50 47 44 38 39 37 37 33 31 33 31 35 35 32 33 36 38 35 35 33 33 35 34 37 40 43 27 40 37 35 34 34 32 32 37 34
55 56 57 57 56 57 55 54 53 53 53 48 42 40 40 43 38 35 33 33 35 37 37 36 37 40 41 37 36 33 31 38 41 38 29 38 31 33 35 36 37 40 42 42
63 62 62 62 62 60 63 59 49 50 53 54 45 43 38 35 33 32 31 32 36 38 39 39 39 37 42 45 41 30 33 36 38 37 38 42 35 35 38 39 37 36 38 40
67 67 68 68 68 67 64 58 42 45 45 52 49 35 27 28 31 31 32 34 37 38 39 38 35 36 42 47 39 24 39 42 47 48 47 45 45 45 44 43 44 45 44 42
77 75 73 71 67 60 56 54 46 44 46 49 52 51 38 32 31 36 37 36 40 44 44 45 43 42 46 44 35 41 44 48 47 50 51 47 48 47 49 51 50 49 48 48
74 72 69 68 63 58 56 51 53 52 48 47 52 50 50 52 48 44 44 43 44 46 50 52 52 51 49 43 38 50 52 54 55 54 54 54 52 53 53 54 55 55 54 52
66 65 61 60 58 56 52 52 54 56 55 54 52 51 54 56 58 60 58 55 51 51 51 52 55 54 56 47 53 55 57 57 57 56 59 59 59 61 61 61 60 60 60 59
66 64 60 60 58 57 57 57 57 59 59 60 59 60 65 66 67 68 66 65 64 63 63 64 63 59 58 58 62 63 66 67 69 66 63 60 60 60 59 60 62 61 60 59
72 72 70 67 65 66 66 65 65 66 69 70 67 68 70 70 67 67 70 71 70 72 71 72 71 67 59 64 67 70 71 69 71 69 67 62 59 57 56 57 59 61 62 61
75 77 77 75 73 73 74 72 71 70 71 72 71 73 73 72 71 71 73 74 75 76 76 74 75 73 71 73 70 68 67 67 65 60 57 53 52 55 56 57 58 60 60 60
83 83 83 81 78 78 78 77 78 78 76 75 75 73 72 72 72 72 72 74 76 76 78 77 74 69 74 70 69 66 64 54 49 48 48 60 59 55 57 50 58 59 60 67
78 77 81 83 83 85 83 78 79 78 75 71 70 69 69 70 69 69 71 72 72 74 76 73 70 70 67 64 65 64 62 61 66 59 40 41 50 58 57 64 69 69 67 68
73 75 78 83 81 79 80 80 75 69 67 66 65 66 67 65 64 65 67 67 70 72 69 66 66 64 64 65 66 67 68 66 55 50 52 54 55 64 66 69 72 77 71 68
78 79 78 77 75 72 68 65 64 63 63 65 66 65 66 66 67 69 68 70 72 68 65 67 67 67 68 69 68 65 63 66 62 61 64 66 64 62 69 70 70 72 69 67
81 80 75 70 71 67 67 65 65 66 65 66 66 69 69 71 74 75 73 72 70 70 69 68 68 67 67 64 63 64 64 60 63 63 65 64 67 69 67 65 64 66 65 61